Location: Aranbee
(34.0885°N, 118.2342°W)
Time: 15:44:34
(UTC+00:00)

Courier 1B Rocket - All Passes

Search period start: 26 November 2020 00:00
Search period end: 06 December 2020 00:00
Orbit: 920 x 1202 km, 28.2° (Epoch: 25 November)

Date Brightness Start Highest point End Pass type
(mag) Time Alt. Az. Time Alt. Az. Time Alt. Az.
26 Nov - 12:05:07 10° S 12:09:50 17° SSE 12:14:31 10° ESE visible
26 Nov - 13:55:50 10° SW 14:02:54 38° SSE 14:09:45 10° E visible
26 Nov - 15:48:49 10° WSW 15:56:17 55° S 16:03:18 10° E daylight
26 Nov - 17:42:34 10° W 17:49:39 48° S 17:56:14 10° ESE daylight
26 Nov - 19:37:01 10° WSW 19:42:35 25° SSW 19:47:52 10° SSE daylight
27 Nov - 11:06:35 10° SSE 11:08:51 11° SSE 11:11:07 10° SE visible
27 Nov - 12:55:07 10° SW 13:01:47 31° SSE 13:08:21 10° E visible
27 Nov - 14:47:36 10° WSW 14:55:06 52° S 15:02:16 10° E daylight
27 Nov - 16:41:11 10° W 16:48:33 53° S 16:55:27 10° ESE daylight
27 Nov - 18:35:18 10° W 18:41:41 33° SSW 18:47:42 10° SE daylight
27 Nov - 20:31:55 10° SW 20:34:20 12° SSW 20:36:42 10° S daylight
28 Nov - 11:54:46 10° SSW 12:00:43 24° SSE 12:06:40 10° ESE visible
28 Nov - 13:46:31 10° WSW 13:53:55 46° SSE 14:01:06 10° E visible
28 Nov - 15:39:50 10° WSW 15:47:22 56° S 15:54:31 10° ESE daylight
28 Nov - 17:33:45 10° W 17:40:43 41° SSW 17:47:14 10° SE daylight
28 Nov - 19:28:51 10° WSW 19:33:32 19° SSW 19:38:01 10° SSE daylight
29 Nov - 10:54:56 10° S 10:59:42 17° SSE 11:04:30 10° ESE visible
29 Nov - 12:45:37 10° SW 12:52:44 39° SSE 12:59:48 10° E visible
29 Nov - 14:38:33 10° WSW 14:46:10 56° S 14:53:30 10° E daylight
29 Nov - 16:32:17 10° W 16:39:37 49° SSW 16:46:33 10° ESE daylight
29 Nov - 18:26:46 10° WSW 18:32:40 26° SSW 18:38:16 10° SSE daylight
30 Nov - 09:56:28 10° SSE 09:58:44 11° SSE 10:01:01 10° SE visible
30 Nov - 11:44:58 10° SW 11:51:37 32° SSE 11:58:19 10° E visible
30 Nov - 13:37:23 10° WSW 13:44:56 52° S 13:52:21 10° E visible
30 Nov - 15:30:54 10° W 15:38:28 54° S 15:45:41 10° ESE daylight
30 Nov - 17:25:01 10° W 17:31:42 34° SSW 17:38:02 10° SE daylight
30 Nov - 19:21:32 10° SW 19:24:26 13° SSW 19:27:16 10° S daylight
01 Dec - 10:44:41 10° SSW 10:50:34 24° SSE 10:56:33 10° ESE visible
01 Dec - 12:36:21 10° WSW 12:43:44 47° SSE 12:51:06 10° E visible
01 Dec - 14:29:35 10° WSW 14:37:14 57° S 14:44:39 10° ESE daylight
01 Dec - 16:23:28 10° W 16:30:39 42° SSW 16:37:30 10° SE daylight
01 Dec - 18:18:34 10° WSW 18:23:34 19° SSW 18:28:24 10° SSE daylight
02 Dec - 09:44:57 10° S 09:49:35 17° SSE 09:54:18 10° ESE visible
02 Dec - 11:35:32 10° SW 11:42:34 39° SSE 11:49:42 10° E visible
02 Dec - 13:28:22 10° WSW 13:35:59 56° S 13:43:32 10° E visible
02 Dec - 15:22:02 10° W 15:29:30 49° SSW 15:36:43 10° ESE daylight
02 Dec - 17:16:29 10° WSW 17:22:39 27° SSW 17:28:33 10° SSE daylight
03 Dec - 08:46:42 10° SSE 08:48:40 11° SSE 08:50:38 10° SE night (unlit)
03 Dec - 10:34:58 10° SW 10:41:27 32° SSE 10:48:09 10° E visible
03 Dec - 12:27:17 10° WSW 12:34:45 53° S 12:42:18 10° E visible
03 Dec - 14:20:42 10° W 14:28:17 54° S 14:35:45 10° ESE daylight
03 Dec - 16:14:45 10° W 16:21:37 35° SSW 16:28:15 10° SE daylight
03 Dec - 18:11:07 10° WSW 18:14:26 13° SSW 18:17:41 10° S daylight
04 Dec - 09:34:47 10° SSW 09:40:26 24° SSE 09:46:19 10° ESE visible
04 Dec - 11:26:20 10° WSW 11:33:32 47° SSE 11:40:57 10° E visible
04 Dec - 13:19:27 10° WSW 13:27:03 57° S 13:34:39 10° ESE visible
04 Dec - 15:13:14 10° W 15:20:30 42° SSW 15:27:36 10° SE daylight
04 Dec - 17:08:16 10° WSW 17:13:31 20° SSW 17:18:38 10° SSE daylight
05 Dec - 08:35:10 10° S 08:39:30 17° SSE 08:44:00 10° ESE night (unlit)
05 Dec - 10:25:36 10° SW 10:32:24 39° SSE 10:39:29 10° E visible
05 Dec - 12:18:19 10° WSW 12:25:47 56° S 12:33:25 10° E visible
05 Dec - 14:11:52 10° W 14:19:19 49° SSW 14:26:44 10° ESE visible
05 Dec - 16:06:14 10° WSW 16:12:32 27° SSW 16:18:41 10° SSE daylight
